Regional Weather Roundup
Issued by NWS Jackson, KY

Home | Current Version | Previous Version | Graphics & Text | Print | Product List | Glossary On
Versions: 1 2 3 4 5 6 7 8 9 10 11 12 13 14 15 16 17 18 19 20 21 22 23 24 25 26 27 28 29 30 31 32 33 34 35 36 37 38 39 40 41 42 43 44 45 46 47 48 49 50
000
ASUS43 KJKL 231710
RWRJKL

EAST KENTUCKY HOURLY WEATHER ROUNDUP
NATIONAL WEATHER SERVICE JACKSON KY
100 PM EDT WED AUG 23 2017

NOTE: "FAIR" INDICATES FEW OR NO CLOUDS BELOW 12,000 FEET WITH
NO SIGNIFICANT WEATHER AND/OR OBSTRUCTIONS TO VISIBILITY.

* THESE REPORTS ARE NOT UNDER NWS QUALITY CONTROL AND MAY NOT
  REPORT WEATHER SUCH AS PRECIPITATION AND FOG.

KYZ079-080-083-085-087-088-110-112-115-119-120-231800
...EASTERN KENTUCKY...

CITY           SKY/WX    TMP DP  RH WIND       PRES   REMARKS
JACKSON        MOSUNNY   76  63  64 VRB6      30.02F
LONDON         PTSUNNY   79  61  53 W8        30.02S
SOMERSET*      PTSUNNY   73  59  60 W6        30.04S
MONTICELLO*    PTSUNNY   78  65  63 NW8       30.05R
WILLIAMSBURG*  MOSUNNY   77  64  65 CALM      30.02S
MIDDLESBORO*   MOSUNNY   81  64  55 NW6       30.01F
HARLAN APT*    PTSUNNY   81  61  50 CALM      30.02S
PIKE CO APT*   PTSUNNY   76  66  71 NW8       30.02S
BIG SANDY APT* PTSUNNY   76  63  62 N3        30.02S
MOREHEAD APT*  SUNNY     75  57  53 VRB3      30.05F
$$

KYZ035-036-041-042-044-050-067-078-099-231800
...CENTRAL KENTUCKY...

CITY           SKY/WX    TMP DP  RH WIND       PRES   REMARKS
MT STERLING*   SUNNY     75  59  57 NE6       30.05F
FLEMING/MASON* SUNNY     74  53  47 NW3       30.05S
DANVILLE*      MOSUNNY   75  55  50 E8        30.05F
LEXINGTON      SUNNY     76  56  49 VRB5      30.04F
FRANKFORT      SUNNY     78  53  41 N6        30.04S
LOUISVILLE     MOSUNNY   79  56  45 VRB3      30.04S
LEBANON*       PTSUNNY   75  57  53 CALM      30.04F
GLASGOW*       MOSUNNY   79  56  45 CALM      30.04S
BOWLING GREEN  SUNNY     78  58  49 VRB6      30.05S
$$

KYZ091>093-OHZ055-061-077-WVZ005-015-034-035-042-231800
...SOUTHERN OHIO/WEST VIRGINIA...

CITY           SKY/WX    TMP DP  RH WIND       PRES   REMARKS
COVINGTON      MOSUNNY   76  55  48 NW7       30.04F
COLUMBUS       MOSUNNY   74  54  49 NW9       30.00F
DAYTON         MOSUNNY   75  51  43 NW14      30.04F
WILMINGTON     MOSUNNY   73  55  53 N9        30.03F
HUNTINGTON     MOSUNNY   77  58  51 VRB6      30.01S
CHARLESTON     PTSUNNY   77  59  53 W9        29.99F
PINEVILLE*     PTSUNNY   78  64  61 MISG      30.05F
BECKLEY        PTSUNNY   74  61  63 NW3       30.03F
BLUEFIELD      MOSUNNY   72  61  68 NW6       30.05S
LOGAN CO APT*  PTSUNNY   75  63  64 VRB6      30.02S
$$

VAZ002-007-008-TNZ017-027-036-066-071-231800
...SOUTHWEST VIRGINIA/EAST TENNESSEE...

CITY           SKY/WX    TMP DP  RH WIND       PRES   REMARKS
WISE*          PTSUNNY   75  61  60 CALM      30.07F
JONESVILLE*      N/A     81  64  57 W3        30.02F
ABINGDON*      PTSUNNY   79  66  63 N6        30.02S
BRISTOL        PTSUNNY   80  67  64 VRB5      30.00F
MORRISTOWN*    PTSUNNY   81  64  57 VRB6      29.99F
SEVIERVILLE*   PTSUNNY   79  66  65 CALM      29.99F
KNOXVILLE      PTSUNNY   83  65  54 N8        29.98F
LAFOLLETTE*    MOSUNNY   81  64  57 CALM      30.04S
OAK RIDGE      MOSUNNY   85  59  41 VRB5      30.00
CROSSVILLE     MOSUNNY   76  62  62 NW12      30.06F
NASHVILLE      PTSUNNY   81  61  50 N10       30.05S
$$

...KEY TO REMARKS...
VSB - VISIBILITY IN MILES
WCI - WIND CHILL INDEX
HX  - HEAT INDEX

$$



USA.gov is the U.S. government's official web portal to all federal, state and local government web resources and services.